Location: Austin
(30.3000°N, 97.7500°W)
Time: 06:15:53
(UTC-05:00)

CZ-3 R/B - Pass Details

Date: 16 June 2025
Orbit: 533 x 10023 km, 28.2° (Epoch: 07 July)

Event Time Altitude Azimuth Distance (km) Brightness Sun altitude
Exits shadow 04:19:37 26° 213° (SSW) 7,079 5.3 -22.9°
Maximum altitude 04:33:44 43° 165° (SSE) 3,668 4.2 -20.8°
Drops below altitude 10° 04:43:15 10° 96° (E) 3,663 5.0 -19.4°
Sets 04:45:25 0° 88° (E) 4,182 5.6 -19.0°
